QPF
0.00 0.00 0.00 0.00 0.00 0.00 0.00 0.00 0.00 0.00 0.00 0.00 0.00 0.00 0.00 0.00 0.00 0.00 0.00 0.00 0.00 0.00 0.00 0.00 0.00 0.00 0.00 0.00 0.00 0.00 0.00 0.00 0.00 0.00 0.00 0.00 0.00 0.00 0.00 0.00 0.00 0.00 0.00 0.00 0.01 0.01 0.01 0.01 0.01
0.00 0.00 0.00 0.00 0.00 0.00 0.00 0.00 0.00 0.00 0.00 0.00 0.00 0.00 0.00 0.00 0.00 0.00 0.00 0.00 0.00 0.00 0.00 0.00 0.00 0.00 0.00 0.00 0.00 0.00 0.00 0.00 0.00 0.00 0.00 0.00 0.00 0.00 0.00 0.00 0.00 0.00 0.00 0.00 0.00 0.00 0.00 0.00 0.01
0.00 0.00 0.00 0.00 0.00 0.00 0.00 0.00 0.00 0.00 0.00 0.00 0.00 0.00 0.00 0.00 0.00 0.00 0.00 0.00 0.00 0.00 0.00 0.00 0.00 0.00 0.00 0.00 0.00 0.00 0.00 0.00 0.00 0.00 0.00 0.00 0.00 0.00 0.00 0.00 0.00 0.00 0.00 0.00 0.00 0.00 0.00 0.00 0.00
0.00 0.00 0.00 0.00 0.00 0.00 0.00 0.00 0.00 0.00 0.00 0.00 0.00 0.00 0.00 0.00 0.00 0.00 0.00 0.00 0.00 0.00 0.00 0.00 0.00 0.00 0.00 0.00 0.00 0.00 0.00 0.00 0.00 0.00 0.00 0.00 0.00 0.00 0.00 0.00 0.00 0.00 0.00 0.00 0.00 0.00 0.00 0.00 0.00
0.00 0.00 0.00 0.00 0.00 0.00 0.00 0.00 0.00 0.00 0.00 0.00 0.00 0.00 0.00 0.00 0.00 0.00 0.00 0.00 0.00 0.00 0.00 0.00 0.00 0.00 0.00 0.00 0.00 0.00 0.00 0.00 0.00 0.00 0.00 0.00 0.00 0.00 0.00 0.00 0.00 0.00 0.00 0.00 0.00 0.00 0.00 0.00 0.00
0.00 0.00 0.00 0.00 0.00 0.00 0.00 0.00 0.00 0.00 0.00 0.00 0.00 0.00 0.00 0.00 0.00 0.00 0.00 0.00 0.00 0.00 0.00 0.00 0.00 0.00 0.00 0.00 0.00 0.00 0.00 0.00 0.00 0.00 0.00 0.00 0.00 0.00 0.00 0.00 0.00 0.00 0.00 0.00 0.00 0.00 0.00 0.00 0.00
0.00 0.00 0.00 0.00 0.00 0.00 0.00 0.00 0.00 0.00 0.00 0.00 0.00 0.00 0.00 0.00 0.00 0.00 0.00 0.00 0.00 0.00 0.00 0.00 0.00 0.00 0.00 0.00 0.00 0.00 0.00 0.00 0.00 0.00 0.00 0.00 0.00 0.00 0.00 0.00 0.00 0.00 0.00 0.00 0.00 0.00 0.00 0.00 0.00
0.00 0.00 0.00 0.00 0.00 0.00 0.00 0.00 0.00 0.00 0.00 0.00 0.00 0.00 0.00 0.00 0.00 0.00 0.00 0.00 0.00 0.00 0.00 0.00 0.00 0.00 0.00 0.00 0.00 0.00 0.00 0.00 0.00 0.00 0.00 0.00 0.00 0.00 0.00 0.00 0.00 0.00 0.00 0.00 0.00 0.00 0.00 0.00 0.00
0.00 0.00 0.00 0.00 0.00 0.00 0.00 0.00 0.00 0.00 0.00 0.00 0.00 0.00 0.00 0.00 0.00 0.00 0.00 0.00 0.00 0.00 0.00 0.00 0.00 0.00 0.00 0.00 0.00 0.00 0.00 0.00 0.00 0.00 0.00 0.00 0.00 0.00 0.00 0.00 0.00 0.00 0.00 0.00 0.00 0.00 0.00 0.00 0.00
0.00 0.00 0.00 0.00 0.00 0.00 0.00 0.00 0.00 0.00 0.00 0.00 0.00 0.00 0.00 0.00 0.00 0.00 0.00 0.00 0.00 0.00 0.00 0.00 0.00 0.00 0.00 0.00 0.00 0.00 0.00 0.00 0.00 0.00 0.00 0.00 0.00 0.00 0.00 0.00 0.00 0.00 0.00 0.00 0.00 0.00 0.00 0.00 0.00
0.00 0.00 0.00 0.00 0.00 0.00 0.00 0.00 0.00 0.00 0.00 0.00 0.00 0.00 0.00 0.00 0.00 0.00 0.00 0.00 0.00 0.00 0.00 0.00 0.00 0.00 0.00 0.00 0.00 0.00 0.00 0.00 0.00 0.00 0.00 0.00 0.00 0.00 0.00 0.00 0.00 0.00 0.00 0.00 0.00 0.00 0.00 0.00 0.00
0.00 0.00 0.00 0.00 0.00 0.00 0.00 0.00 0.00 0.00 0.00 0.00 0.00 0.00 0.00 0.00 0.00 0.00 0.00 0.00 0.00 0.00 0.00 0.00 0.00 0.00 0.00 0.00 0.00 0.00 0.00 0.00 0.00 0.00 0.00 0.00 0.00 0.00 0.00 0.00 0.00 0.00 0.00 0.00 0.00 0.00 0.00 0.00 0.00
0.00 0.00 0.00 0.00 0.00 0.00 0.00 0.00 0.00 0.00 0.00 0.00 0.00 0.00 0.00 0.00 0.00 0.00 0.00 0.00 0.00 0.00 0.00 0.00 0.00 0.00 0.00 0.00 0.00 0.00 0.00 0.00 0.00 0.00 0.00 0.00 0.00 0.00 0.00 0.00 0.00 0.00 0.00 0.00 0.00 0.00 0.00 0.00 0.00
0.00 0.00 0.00 0.00 0.00 0.00 0.00 0.00 0.00 0.00 0.00 0.00 0.00 0.00 0.00 0.00 0.00 0.00 0.00 0.00 0.00 0.00 0.00 0.00 0.00 0.00 0.00 0.00 0.00 0.00 0.00 0.00 0.00 0.00 0.00 0.00 0.00 0.00 0.00 0.00 0.00 0.00 0.00 0.00 0.00 0.00 0.00 0.00 0.00
0.00 0.00 0.00 0.00 0.00 0.00 0.00 0.00 0.00 0.00 0.00 0.00 0.00 0.00 0.00 0.00 0.00 0.00 0.00 0.00 0.00 0.00 0.00 0.00 0.00 0.00 0.00 0.00 0.00 0.00 0.00 0.00 0.00 0.00 0.00 0.00 0.00 0.00 0.00 0.00 0.00 0.00 0.00 0.00 0.00 0.00 0.00 0.00 0.00
0.00 0.00 0.00 0.00 0.00 0.00 0.00 0.00 0.00 0.00 0.00 0.00 0.00 0.00 0.00 0.00 0.00 0.00 0.00 0.00 0.00 0.00 0.00 0.00 0.00 0.00 0.00 0.00 0.00 0.00 0.00 0.00 0.00 0.00 0.00 0.00 0.00 0.00 0.00 0.00 0.00 0.00 0.00 0.00 0.00 0.00 0.00 0.00 0.00
0.00 0.00 0.00 0.00 0.00 0.00 0.00 0.00 0.00 0.00 0.00 0.00 0.00 0.00 0.00 0.00 0.00 0.00 0.00 0.00 0.00 0.00 0.00 0.00 0.00 0.00 0.00 0.00 0.00 0.00 0.00 0.00 0.00 0.00 0.00 0.00 0.00 0.00 0.00 0.00 0.00 0.00 0.00 0.00 0.00 0.00 0.00 0.00 0.00
0.00 0.00 0.00 0.00 0.00 0.00 0.00 0.00 0.00 0.00 0.00 0.00 0.00 0.00 0.00 0.00 0.00 0.00 0.00 0.00 0.00 0.00 0.00 0.00 0.00 0.00 0.00 0.00 0.00 0.00 0.00 0.00 0.00 0.00 0.00 0.00 0.00 0.00 0.00 0.00 0.00 0.00 0.00 0.00 0.00 0.00 0.00 0.00 0.00
0.00 0.00 0.00 0.00 0.00 0.00 0.00 0.00 0.00 0.00 0.00 0.00 0.00 0.00 0.00 0.00 0.00 0.00 0.00 0.00 0.00 0.00 0.00 0.00 0.00 0.00 0.00 0.00 0.00 0.00 0.00 0.00 0.00 0.00 0.00 0.00 0.00 0.00 0.00 0.00 0.00 0.00 0.00 0.00 0.00 0.00 0.00 0.00 0.00
0.00 0.00 0.00 0.00 0.00 0.00 0.00 0.00 0.00 0.00 0.00 0.00 0.00 0.00 0.00 0.00 0.00 0.00 0.00 0.00 0.00 0.00 0.00 0.00 0.00 0.00 0.00 0.00 0.00 0.00 0.00 0.00 0.00 0.00 0.00 0.00 0.00 0.00 0.00 0.00 0.00 0.00 0.00 0.00 0.00 0.00 0.00 0.00 0.00
0.00 0.00 0.00 0.00 0.00 0.00 0.00 0.00 0.00 0.00 0.00 0.00 0.00 0.00 0.00 0.00 0.00 0.00 0.00 0.00 0.00 0.00 0.00 0.00 0.00 0.00 0.00 0.00 0.00 0.00 0.00 0.00 0.00 0.00 0.00 0.00 0.00 0.00 0.00 0.00 0.00 0.00 0.00 0.00 0.00 0.00 0.00 0.00 0.00
0.00 0.00 0.00 0.00 0.00 0.00 0.00 0.00 0.00 0.00 0.00 0.00 0.00 0.00 0.00 0.00 0.00 0.00 0.00 0.00 0.00 0.00 0.00 0.00 0.00 0.00 0.00 0.00 0.00 0.00 0.00 0.00 0.00 0.00 0.00 0.00 0.00 0.00 0.00 0.00 0.00 0.00 0.00 0.00 0.00 0.00 0.00 0.00 0.00
0.00 0.00 0.00 0.00 0.00 0.00 0.00 0.00 0.00 0.00 0.00 0.00 0.00 0.00 0.00 0.00 0.00 0.00 0.00 0.00 0.00 0.00 0.00 0.00 0.00 0.00 0.00 0.00 0.00 0.00 0.00 0.00 0.00 0.00 0.00 0.00 0.00 0.00 0.00 0.00 0.00 0.00 0.00 0.00 0.00 0.00 0.00 0.00 0.00
0.00 0.00 0.00 0.00 0.00 0.00 0.00 0.00 0.00 0.00 0.00 0.00 0.00 0.00 0.00 0.00 0.00 0.00 0.00 0.00 0.00 0.00 0.00 0.00 0.00 0.00 0.00 0.00 0.00 0.00 0.00 0.00 0.00 0.00 0.00 0.00 0.00 0.00 0.00 0.00 0.00 0.00 0.00 0.00 0.00 0.00 0.00 0.00 0.00
0.00 0.00 0.00 0.00 0.00 0.00 0.00 0.00 0.00 0.00 0.00 0.00 0.00 0.00 0.00 0.00 0.00 0.00 0.00 0.00 0.00 0.00 0.00 0.00 0.00 0.00 0.00 0.00 0.00 0.00 0.00 0.00 0.00 0.00 0.00 0.00 0.00 0.00 0.00 0.00 0.00 0.00 0.00 0.00 0.00 0.00 0.00 0.00 0.00
0.00 0.00 0.00 0.00 0.00 0.00 0.00 0.00 0.00 0.00 0.00 0.00 0.00 0.00 0.00 0.00 0.00 0.00 0.00 0.00 0.00 0.00 0.00 0.00 0.00 0.00 0.00 0.00 0.00 0.00 0.00 0.00 0.00 0.00 0.00 0.00 0.00 0.00 0.00 0.00 0.00 0.00 0.00 0.00 0.00 0.00 0.00 0.00 0.00
0.00 0.00 0.00 0.00 0.00 0.00 0.00 0.00 0.00 0.00 0.00 0.00 0.00 0.00 0.00 0.00 0.00 0.00 0.00 0.00 0.00 0.00 0.00 0.00 0.00 0.00 0.00 0.00 0.00 0.00 0.00 0.00 0.00 0.00 0.00 0.00 0.00 0.00 0.00 0.00 0.00 0.00 0.00 0.00 0.00 0.00 0.00 0.00 0.00
0.00 0.00 0.00 0.00 0.00 0.00 0.00 0.00 0.00 0.00 0.00 0.00 0.00 0.00 0.00 0.00 0.00 0.00 0.00 0.00 0.00 0.00 0.00 0.00 0.00 0.00 0.00 0.00 0.00 0.00 0.00 0.00 0.00 0.00 0.00 0.00 0.00 0.00 0.00 0.00 0.00 0.00 0.00 0.00 0.00 0.00 0.00 0.00 0.00
0.00 0.00 0.00 0.00 0.00 0.00 0.00 0.00 0.00 0.00 0.00 0.00 0.00 0.00 0.00 0.00 0.00 0.00 0.00 0.00 0.00 0.00 0.00 0.00 0.00 0.00 0.00 0.00 0.00 0.00 0.00 0.00 0.00 0.00 0.00 0.00 0.00 0.00 0.00 0.00 0.00 0.00 0.00 0.00 0.00 0.00 0.00 0.00 0.00
0.00 0.00 0.00 0.00 0.00 0.00 0.00 0.00 0.00 0.00 0.00 0.00 0.00 0.00 0.00 0.00 0.00 0.00 0.00 0.00 0.00 0.00 0.00 0.00 0.00 0.00 0.00 0.00 0.00 0.00 0.00 0.00 0.00 0.00 0.00 0.00 0.00 0.00 0.00 0.00 0.00 0.00 0.00 0.00 0.01 0.01 0.01 0.00 0.00
MSLP
1016.82 1017.10 1017.57 1018.21 1018.96 1019.78 1020.57 1021.26 1021.81 1022.19 1022.40 1022.48 1022.50 1022.52 1022.60 1022.77 1023.05 1023.43 1023.86 1024.32 1024.77 1025.19 1025.58 1025.94 1026.28 1026.62 1026.96 1027.29 1027.57 1027.80 1027.94 1028.00 1027.98 1027.91 1027.82 1027.75 1027.72 1027.73 1027.77 1027.81 1027.82 1027.78 1027.68 1027.54 1027.38 1027.24 1027.15 1027.12 1027.14
1017.01 1017.39 1017.94 1018.63 1019.41 1020.20 1020.94 1021.55 1022.00 1022.28 1022.40 1022.41 1022.40 1022.40 1022.49 1022.68 1022.99 1023.38 1023.82 1024.28 1024.72 1025.13 1025.51 1025.86 1026.22 1026.58 1026.94 1027.30 1027.62 1027.88 1028.07 1028.18 1028.21 1028.19 1028.15 1028.12 1028.12 1028.14 1028.17 1028.19 1028.17 1028.10 1027.98 1027.83 1027.68 1027.55 1027.47 1027.45 1027.48
1017.33 1017.76 1018.35 1019.04 1019.79 1020.51 1021.15 1021.65 1021.98 1022.16 1022.21 1022.20 1022.19 1022.23 1022.37 1022.62 1022.98 1023.41 1023.88 1024.35 1024.79 1025.18 1025.55 1025.89 1026.24 1026.60 1026.96 1027.33 1027.66 1027.95 1028.17 1028.32 1028.40 1028.44 1028.46 1028.47 1028.50 1028.53 1028.55 1028.55 1028.50 1028.40 1028.26 1028.09 1027.93 1027.81 1027.74 1027.72 1027.75
1017.72 1018.19 1018.77 1019.42 1020.08 1020.68 1021.18 1021.55 1021.77 1021.86 1021.87 1021.86 1021.89 1022.00 1022.23 1022.57 1023.00 1023.49 1023.99 1024.47 1024.91 1025.29 1025.65 1025.98 1026.31 1026.65 1027.01 1027.36 1027.70 1027.99 1028.23 1028.42 1028.55 1028.64 1028.72 1028.78 1028.84 1028.89 1028.91 1028.89 1028.82 1028.70 1028.54 1028.37 1028.21 1028.09 1028.02 1028.00 1028.01
1018.16 1018.63 1019.17 1019.73 1020.27 1020.73 1021.08 1021.30 1021.41 1021.44 1021.43 1021.45 1021.55 1021.75 1022.07 1022.50 1023.01 1023.55 1024.08 1024.57 1025.00 1025.38 1025.72 1026.04 1026.36 1026.69 1027.03 1027.37 1027.69 1027.99 1028.25 1028.46 1028.64 1028.79 1028.92 1029.04 1029.14 1029.22 1029.26 1029.24 1029.17 1029.04 1028.88 1028.71 1028.55 1028.43 1028.36 1028.32 1028.31
1018.58 1019.04 1019.51 1019.97 1020.37 1020.67 1020.87 1020.97 1020.98 1020.96 1020.96 1021.02 1021.19 1021.49 1021.91 1022.42 1022.98 1023.56 1024.10 1024.59 1025.01 1025.38 1025.70 1026.01 1026.33 1026.65 1026.98 1027.32 1027.65 1027.95 1028.22 1028.46 1028.68 1028.88 1029.07 1029.25 1029.41 1029.53 1029.60 1029.60 1029.54 1029.42 1029.27 1029.10 1028.95 1028.83 1028.75 1028.70 1028.65
1018.95 1019.37 1019.78 1020.13 1020.40 1020.56 1020.63 1020.61 1020.55 1020.50 1020.52 1020.63 1020.87 1021.25 1021.74 1022.30 1022.90 1023.48 1024.01 1024.48 1024.88 1025.23 1025.55 1025.86 1026.18 1026.52 1026.86 1027.21 1027.55 1027.86 1028.16 1028.43 1028.69 1028.94 1029.18 1029.42 1029.63 1029.80 1029.90 1029.94 1029.90 1029.81 1029.68 1029.53 1029.39 1029.27 1029.17 1029.09 1029.01
1019.24 1019.63 1019.97 1020.23 1020.38 1020.43 1020.39 1020.29 1020.18 1020.11 1020.14 1020.30 1020.60 1021.02 1021.55 1022.14 1022.73 1023.29 1023.79 1024.22 1024.59 1024.92 1025.24 1025.57 1025.91 1026.28 1026.66 1027.04 1027.40 1027.74 1028.06 1028.36 1028.66 1028.95 1029.25 1029.53 1029.78 1030.00 1030.14 1030.21 1030.21 1030.14 1030.04 1029.91 1029.78 1029.66 1029.55 1029.45 1029.34
1019.48 1019.84 1020.12 1020.30 1020.36 1020.32 1020.20 1020.03 1019.88 1019.80 1019.83 1020.01 1020.34 1020.79 1021.32 1021.90 1022.46 1022.98 1023.43 1023.82 1024.16 1024.48 1024.80 1025.16 1025.54 1025.95 1026.38 1026.80 1027.21 1027.58 1027.93 1028.27 1028.59 1028.92 1029.24 1029.56 1029.85 1030.09 1030.27 1030.36 1030.39 1030.35 1030.27 1030.16 1030.05 1029.94 1029.83 1029.72 1029.58
1019.66 1019.99 1020.23 1020.35 1020.35 1020.23 1020.04 1019.82 1019.63 1019.52 1019.55 1019.72 1020.04 1020.47 1020.99 1021.53 1022.05 1022.52 1022.92 1023.27 1023.60 1023.92 1024.27 1024.66 1025.09 1025.56 1026.04 1026.52 1026.97 1027.38 1027.76 1028.12 1028.47 1028.81 1029.15 1029.48 1029.79 1030.04 1030.23 1030.35 1030.39 1030.38 1030.32 1030.24 1030.15 1030.06 1029.96 1029.85 1029.72
1019.83 1020.12 1020.32 1020.39 1020.33 1020.15 1019.90 1019.62 1019.37 1019.22 1019.20 1019.33 1019.61 1020.01 1020.48 1020.98 1021.45 1021.88 1022.26 1022.60 1022.93 1023.27 1023.66 1024.10 1024.59 1025.12 1025.66 1026.18 1026.67 1027.12 1027.52 1027.89 1028.25 1028.60 1028.94 1029.27 1029.57 1029.83 1030.02 1030.14 1030.19 1030.20 1030.16 1030.12 1030.06 1030.00 1029.93 1029.84 1029.73
1019.97 1020.24 1020.39 1020.40 1020.29 1020.05 1019.72 1019.37 1019.05 1018.81 1018.72 1018.77 1018.99 1019.32 1019.74 1020.20 1020.65 1021.07 1021.45 1021.81 1022.17 1022.56 1023.00 1023.50 1024.05 1024.63 1025.22 1025.78 1026.30 1026.77 1027.19 1027.56 1027.92 1028.26 1028.60 1028.91 1029.20 1029.44 1029.63 1029.75 1029.81 1029.83 1029.83 1029.81 1029.80 1029.78 1029.76 1029.71 1029.64
1020.11 1020.32 1020.41 1020.37 1020.19 1019.87 1019.46 1019.01 1018.58 1018.24 1018.03 1017.98 1018.10 1018.37 1018.74 1019.16 1019.61 1020.05 1020.48 1020.89 1021.32 1021.78 1022.28 1022.85 1023.46 1024.09 1024.71 1025.30 1025.84 1026.31 1026.73 1027.11 1027.45 1027.78 1028.11 1028.41 1028.69 1028.92 1029.11 1029.23 1029.30 1029.34 1029.37 1029.39 1029.42 1029.46 1029.49 1029.50 1029.46
1020.20 1020.35 1020.38 1020.26 1020.00 1019.59 1019.07 1018.50 1017.94 1017.46 1017.11 1016.94 1016.96 1017.15 1017.47 1017.89 1018.36 1018.86 1019.36 1019.86 1020.38 1020.93 1021.51 1022.14 1022.80 1023.47 1024.12 1024.72 1025.26 1025.73 1026.14 1026.51 1026.85 1027.18 1027.49 1027.79 1028.07 1028.31 1028.50 1028.64 1028.73 1028.80 1028.86 1028.93 1029.01 1029.10 1029.18 1029.23 1029.24
1020.23 1020.30 1020.25 1020.06 1019.70 1019.19 1018.56 1017.85 1017.14 1016.51 1016.01 1015.71 1015.61 1015.72 1016.02 1016.44 1016.96 1017.53 1018.13 1018.74 1019.36 1020.00 1020.67 1021.36 1022.06 1022.75 1023.41 1024.01 1024.55 1025.02 1025.42 1025.79 1026.13 1026.45 1026.78 1027.09 1027.38 1027.64 1027.85 1028.02 1028.16 1028.26 1028.36 1028.48 1028.60 1028.73 1028.85 1028.95 1028.99
1020.18 1020.17 1020.05 1019.77 1019.33 1018.72 1017.96 1017.12 1016.26 1015.47 1014.82 1014.38 1014.18 1014.22 1014.48 1014.92 1015.49 1016.15 1016.84 1017.55 1018.28 1019.01 1019.74 1020.48 1021.22 1021.93 1022.59 1023.19 1023.72 1024.19 1024.59 1024.96 1025.30 1025.64 1025.98 1026.32 1026.64 1026.94 1027.20 1027.42 1027.60 1027.75 1027.90 1028.05 1028.21 1028.38 1028.53 1028.64 1028.69
1020.05 1019.97 1019.78 1019.43 1018.92 1018.22 1017.36 1016.39 1015.39 1014.45 1013.66 1013.10 1012.79 1012.77 1013.00 1013.45 1014.07 1014.79 1015.56 1016.36 1017.16 1017.96 1018.75 1019.52 1020.28 1020.99 1021.66 1022.26 1022.79 1023.25 1023.66 1024.03 1024.39 1024.74 1025.11 1025.48 1025.85 1026.20 1026.52 1026.80 1027.04 1027.25 1027.44 1027.63 1027.82 1028.00 1028.16 1028.28 1028.33
1019.86 1019.73 1019.49 1019.10 1018.54 1017.77 1016.83 1015.76 1014.64 1013.58 1012.66 1011.98 1011.59 1011.50 1011.70 1012.16 1012.79 1013.55 1014.38 1015.22 1016.06 1016.89 1017.70 1018.48 1019.24 1019.96 1020.63 1021.23 1021.76 1022.23 1022.64 1023.02 1023.39 1023.77 1024.16 1024.57 1024.99 1025.40 1025.78 1026.13 1026.43 1026.69 1026.93 1027.15 1027.36 1027.56 1027.72 1027.84 1027.88
1019.64 1019.49 1019.25 1018.85 1018.27 1017.47 1016.47 1015.32 1014.10 1012.93 1011.91 1011.13 1010.66 1010.52 1010.68 1011.11 1011.74 1012.51 1013.33 1014.18 1015.01 1015.83 1016.62 1017.39 1018.14 1018.85 1019.51 1020.12 1020.66 1021.14 1021.56 1021.95 1022.32 1022.71 1023.12 1023.56 1024.01 1024.48 1024.92 1025.33 1025.70 1026.02 1026.30 1026.56 1026.79 1026.99 1027.16 1027.28 1027.32
1019.46 1019.33 1019.11 1018.74 1018.16 1017.35 1016.31 1015.10 1013.82 1012.56 1011.45 1010.60 1010.05 1009.85 1009.97 1010.36 1010.96 1011.68 1012.47 1013.26 1014.04 1014.81 1015.55 1016.28 1016.99 1017.68 1018.34 1018.96 1019.50 1019.99 1020.41 1020.80 1021.17 1021.55 1021.96 1022.41 1022.90 1023.40 1023.89 1024.36 1024.79 1025.17 1025.51 1025.80 1026.05 1026.27 1026.45 1026.58 1026.64
1019.35 1019.29 1019.13 1018.80 1018.25 1017.43 1016.37 1015.12 1013.76 1012.44 1011.27 1010.35 1009.75 1009.49 1009.56 1009.89 1010.43 1011.08 1011.78 1012.49 1013.17 1013.84 1014.50 1015.16 1015.82 1016.49 1017.14 1017.75 1018.31 1018.79 1019.22 1019.59 1019.94 1020.30 1020.69 1021.13 1021.62 1022.15 1022.68 1023.21 1023.69 1024.13 1024.51 1024.84 1025.13 1025.38 1025.59 1025.75 1025.85
1019.37 1019.39 1019.30 1019.02 1018.49 1017.68 1016.59 1015.29 1013.88 1012.50 1011.27 1010.30 1009.66 1009.36 1009.37 1009.65 1010.11 1010.66 1011.25 1011.83 1012.39 1012.94 1013.49 1014.06 1014.66 1015.28 1015.92 1016.52 1017.08 1017.56 1017.98 1018.33 1018.65 1018.97 1019.33 1019.74 1020.22 1020.75 1021.32 1021.88 1022.43 1022.92 1023.36 1023.73 1024.06 1024.35 1024.60 1024.82 1024.98
1019.50 1019.61 1019.59 1019.35 1018.83 1018.00 1016.87 1015.52 1014.07 1012.64 1011.37 1010.36 1009.69 1009.35 1009.32 1009.54 1009.92 1010.37 1010.83 1011.27 1011.69 1012.09 1012.52 1012.99 1013.51 1014.09 1014.69 1015.29 1015.84 1016.32 1016.72 1017.04 1017.32 1017.60 1017.91 1018.29 1018.75 1019.28 1019.86 1020.47 1021.06 1021.61 1022.10 1022.53 1022.91 1023.24 1023.54 1023.82 1024.06
1019.73 1019.91 1019.93 1019.71 1019.17 1018.29 1017.12 1015.71 1014.21 1012.74 1011.45 1010.43 1009.74 1009.39 1009.33 1009.49 1009.79 1010.14 1010.48 1010.78 1011.04 1011.31 1011.60 1011.96 1012.40 1012.93 1013.50 1014.08 1014.62 1015.08 1015.46 1015.76 1016.00 1016.24 1016.51 1016.85 1017.28 1017.80 1018.40 1019.03 1019.67 1020.27 1020.81 1021.29 1021.72 1022.10 1022.46 1022.80 1023.12
1019.98 1020.20 1020.23 1019.99 1019.40 1018.47 1017.23 1015.78 1014.24 1012.75 1011.45 1010.44 1009.76 1009.41 1009.34 1009.46 1009.69 1009.94 1010.16 1010.32 1010.45 1010.57 1010.74 1010.99 1011.36 1011.82 1012.35 1012.90 1013.43 1013.88 1014.25 1014.52 1014.73 1014.93 1015.16 1015.47 1015.88 1016.39 1017.00 1017.66 1018.32 1018.97 1019.56 1020.08 1020.55 1020.98 1021.39 1021.78 1022.16
1020.20 1020.41 1020.40 1020.10 1019.45 1018.45 1017.16 1015.67 1014.11 1012.64 1011.37 1010.39 1009.75 1009.42 1009.34 1009.44 1009.61 1009.77 1009.88 1009.92 1009.91 1009.91 1009.96 1010.11 1010.39 1010.79 1011.28 1011.81 1012.31 1012.75 1013.10 1013.36 1013.54 1013.71 1013.92 1014.20 1014.59 1015.10 1015.71 1016.38 1017.08 1017.75 1018.37 1018.93 1019.44 1019.90 1020.33 1020.77 1021.19
1020.31 1020.46 1020.37 1019.99 1019.26 1018.20 1016.87 1015.38 1013.85 1012.43 1011.22 1010.31 1009.72 1009.43 1009.36 1009.43 1009.55 1009.63 1009.64 1009.56 1009.44 1009.32 1009.27 1009.32 1009.53 1009.87 1010.31 1010.81 1011.29 1011.71 1012.04 1012.28 1012.45 1012.60 1012.79 1013.05 1013.43 1013.93 1014.54 1015.22 1015.92 1016.62 1017.26 1017.84 1018.36 1018.84 1019.30 1019.75 1020.21
1020.24 1020.29 1020.10 1019.62 1018.82 1017.73 1016.41 1014.96 1013.51 1012.18 1011.08 1010.27 1009.76 1009.50 1009.45 1009.49 1009.55 1009.56 1009.46 1009.28 1009.06 1008.84 1008.69 1008.66 1008.80 1009.08 1009.47 1009.92 1010.37 1010.77 1011.08 1011.31 1011.46 1011.60 1011.77 1012.02 1012.38 1012.87 1013.46 1014.14 1014.84 1015.54 1016.19 1016.78 1017.31 1017.79 1018.26 1018.72 1019.18
1019.96 1019.88 1019.58 1019.01 1018.17 1017.09 1015.82 1014.47 1013.15 1011.97 1011.02 1010.32 1009.89 1009.69 1009.63 1009.64 1009.64 1009.56 1009.37 1009.09 1008.77 1008.47 1008.24 1008.15 1008.21 1008.43 1008.76 1009.16 1009.57 1009.93 1010.22 1010.42 1010.56 1010.68 1010.83 1011.06 1011.40 1011.87 1012.44 1013.10 1013.79 1014.47 1015.11 1015.70 1016.23 1016.72 1017.18 1017.64 1018.11
1019.48 1019.27 1018.85 1018.23 1017.38 1016.35 1015.19 1014.00 1012.85 1011.86 1011.06 1010.50 1010.16 1009.99 1009.92 1009.89 1009.80 1009.63 1009.35 1008.99 1008.59 1008.21 1007.92 1007.76 1007.76 1007.92 1008.19 1008.53 1008.88 1009.18 1009.43 1009.59 1009.70 1009.80 1009.93 1010.14 1010.45 1010.89 1011.43 1012.06 1012.72 1013.38 1014.01 1014.59 1015.11 1015.60 1016.07 1016.53 1016.99
Thickness
5735 5737 5739 5735 5723 5710 5704 5707 5708 5700 5699 5700 5698 5696 5697 5698 5695 5689 5675 5676 5673 5668 5663 5658 5654 5651 5648 5645 5643 5641 5639 5638 5637 5635 5634 5633 5632 5631 5630 5630 5630 5630 5630 5630 5630 5631 5632 5633 5634
5738 5740 5738 5731 5714 5700 5704 5711 5706 5706 5702 5693 5691 5693 5695 5699 5691 5682 5675 5672 5670 5666 5662 5658 5653 5649 5645 5643 5640 5638 5636 5634 5632 5631 5629 5628 5626 5625 5624 5624 5623 5623 5623 5622 5623 5623 5624 5625 5626
5740 5742 5733 5724 5710 5704 5706 5713 5711 5700 5694 5694 5693 5693 5697 5700 5690 5684 5678 5671 5668 5664 5661 5656 5651 5647 5643 5640 5637 5635 5632 5630 5628 5626 5624 5623 5621 5620 5619 5617 5617 5616 5616 5615 5615 5615 5616 5617 5618
5742 5737 5732 5719 5708 5713 5714 5715 5708 5696 5690 5691 5694 5695 5695 5691 5688 5683 5676 5669 5666 5662 5658 5653 5648 5644 5640 5637 5634 5631 5628 5626 5623 5621 5619 5617 5615 5614 5613 5612 5610 5609 5609 5608 5608 5608 5608 5608 5609
5741 5733 5719 5711 5711 5716 5716 5710 5704 5701 5698 5696 5693 5699 5699 5688 5682 5678 5672 5667 5665 5660 5656 5651 5646 5642 5638 5634 5631 5628 5625 5622 5619 5616 5614 5612 5610 5608 5607 5605 5604 5603 5602 5601 5601 5600 5600 5600 5600
5732 5728 5712 5706 5713 5718 5717 5709 5703 5702 5703 5696 5691 5696 5702 5685 5679 5675 5669 5665 5662 5658 5653 5648 5643 5639 5635 5631 5628 5624 5621 5618 5615 5612 5609 5607 5605 5603 5601 5600 5598 5597 5595 5594 5594 5593 5592 5592 5592
5726 5718 5709 5710 5711 5715 5717 5708 5704 5706 5703 5699 5697 5697 5701 5684 5678 5672 5667 5662 5659 5654 5650 5646 5642 5637 5633 5629 5625 5622 5618 5614 5611 5607 5604 5601 5599 5597 5595 5594 5592 5590 5589 5587 5586 5585 5584 5583 5583
5728 5718 5710 5710 5709 5713 5717 5704 5703 5702 5704 5704 5697 5699 5704 5690 5676 5669 5664 5659 5656 5652 5648 5645 5641 5637 5632 5628 5623 5619 5615 5611 5607 5603 5599 5596 5593 5591 5589 5587 5585 5583 5582 5580 5579 5577 5576 5574 5574
5724 5711 5705 5710 5709 5715 5710 5701 5701 5698 5700 5693 5696 5700 5690 5684 5673 5666 5661 5657 5654 5650 5647 5644 5640 5636 5631 5627 5622 5617 5612 5608 5604 5599 5595 5591 5589 5586 5584 5581 5579 5577 5574 5573 5571 5569 5567 5566 5566
5718 5706 5711 5715 5715 5713 5706 5702 5703 5695 5695 5697 5695 5691 5679 5675 5671 5668 5666 5663 5658 5654 5649 5644 5639 5634 5629 5624 5620 5616 5611 5606 5602 5598 5592 5588 5585 5582 5579 5575 5572 5570 5567 5565 5562 5561 5559 5558 5558
5715 5711 5715 5710 5708 5705 5703 5700 5700 5698 5703 5710 5709 5703 5683 5676 5674 5672 5671 5669 5665 5658 5651 5645 5639 5634 5629 5624 5619 5614 5609 5604 5599 5595 5590 5585 5582 5578 5574 5571 5567 5564 5560 5559 5556 5554 5552 5551 5548
5712 5713 5709 5708 5701 5698 5700 5702 5701 5699 5715 5721 5716 5709 5689 5682 5680 5679 5677 5674 5667 5660 5654 5646 5640 5634 5629 5624 5619 5614 5609 5603 5599 5593 5588 5583 5579 5575 5571 5567 5563 5559 5556 5552 5550 5547 5544 5542 5539
5708 5709 5703 5701 5696 5697 5697 5699 5702 5711 5716 5714 5707 5700 5693 5691 5688 5685 5681 5675 5669 5662 5656 5649 5641 5635 5629 5623 5619 5614 5609 5604 5598 5592 5587 5582 5577 5573 5568 5564 5559 5555 5550 5547 5543 5540 5536 5533 5530
5705 5702 5702 5699 5696 5695 5693 5701 5696 5715 5721 5714 5706 5702 5699 5697 5694 5689 5682 5678 5673 5666 5659 5651 5644 5637 5630 5624 5619 5614 5609 5603 5598 5592 5586 5580 5575 5570 5565 5560 5555 5550 5545 5540 5536 5532 5528 5524 5520
5697 5698 5705 5701 5695 5695 5691 5700 5705 5722 5718 5714 5712 5710 5705 5702 5698 5694 5690 5685 5679 5671 5663 5654 5646 5638 5631 5625 5620 5615 5609 5603 5597 5592 5586 5579 5573 5567 5561 5556 5551 5546 5539 5533 5528 5524 5519 5515 5511
5695 5697 5702 5705 5695 5690 5687 5709 5727 5729 5718 5717 5720 5719 5713 5708 5704 5701 5695 5688 5682 5674 5665 5658 5648 5640 5633 5626 5620 5614 5608 5603 5597 5591 5584 5578 5571 5564 5558 5552 5547 5540 5533 5527 5522 5516 5512 5507 5502
5697 5698 5700 5703 5696 5689 5687 5709 5730 5728 5716 5719 5725 5726 5722 5717 5710 5706 5700 5692 5685 5677 5668 5660 5651 5643 5635 5627 5620 5614 5608 5602 5596 5590 5583 5576 5569 5561 5554 5548 5542 5534 5527 5521 5514 5508 5503 5498 5493
5694 5694 5696 5696 5700 5687 5689 5707 5728 5731 5723 5723 5727 5730 5727 5722 5720 5713 5703 5695 5686 5678 5670 5661 5653 5644 5636 5626 5619 5612 5606 5601 5595 5589 5582 5575 5567 5558 5550 5543 5536 5529 5521 5515 5508 5501 5494 5488 5482
5687 5684 5688 5696 5698 5682 5694 5709 5727 5734 5730 5729 5729 5728 5729 5728 5724 5717 5706 5696 5686 5678 5670 5663 5655 5646 5637 5629 5622 5615 5609 5601 5594 5588 5581 5573 5565 5556 5547 5540 5532 5524 5517 5510 5502 5495 5487 5480 5472
5677 5678 5687 5696 5684 5678 5692 5706 5725 5731 5728 5729 5728 5728 5728 5725 5722 5715 5705 5696 5688 5681 5672 5665 5657 5649 5641 5633 5625 5617 5609 5603 5595 5586 5578 5571 5563 5554 5545 5536 5529 5520 5512 5504 5495 5487 5479 5472 5464
5677 5676 5683 5680 5683 5681 5677 5710 5728 5732 5724 5723 5723 5722 5721 5719 5716 5712 5702 5694 5687 5681 5675 5667 5660 5650 5641 5631 5620 5612 5604 5599 5592 5585 5578 5569 5560 5552 5543 5534 5525 5516 5507 5500 5490 5481 5472 5465 5457
5676 5677 5669 5666 5667 5676 5667 5678 5716 5722 5721 5725 5726 5723 5719 5715 5710 5706 5700 5692 5686 5681 5673 5665 5658 5649 5640 5629 5621 5614 5608 5605 5600 5589 5579 5568 5558 5549 5540 5531 5521 5512 5503 5495 5485 5475 5466 5457 5450
5673 5664 5662 5660 5660 5662 5665 5662 5700 5715 5715 5718 5719 5717 5713 5709 5705 5701 5696 5691 5685 5677 5670 5662 5654 5647 5638 5629 5622 5614 5609 5605 5597 5588 5578 5568 5557 5547 5538 5527 5518 5508 5499 5490 5480 5469 5459 5450 5442
5661 5659 5656 5652 5656 5660 5663 5659 5685 5710 5703 5703 5708 5708 5705 5701 5698 5696 5692 5687 5681 5674 5666 5659 5652 5645 5636 5627 5620 5612 5608 5601 5594 5587 5577 5565 5555 5545 5535 5523 5514 5504 5495 5484 5474 5463 5453 5443 5434
5656 5657 5661 5662 5661 5665 5651 5650 5677 5703 5697 5691 5690 5692 5692 5693 5692 5691 5688 5684 5678 5672 5664 5656 5649 5643 5634 5626 5618 5612 5605 5596 5591 5584 5574 5562 5552 5543 5533 5521 5511 5501 5490 5479 5467 5457 5447 5436 5426
5652 5650 5647 5642 5649 5658 5648 5651 5688 5700 5692 5686 5682 5682 5684 5686 5686 5684 5682 5679 5674 5669 5661 5654 5647 5641 5632 5624 5616 5607 5599 5590 5586 5579 5570 5560 5551 5541 5529 5517 5507 5497 5485 5473 5461 5450 5440 5429 5419
5645 5644 5640 5637 5636 5630 5649 5659 5680 5695 5688 5684 5681 5678 5677 5677 5676 5675 5674 5671 5668 5663 5657 5650 5643 5636 5627 5619 5610 5601 5593 5585 5578 5570 5561 5554 5545 5535 5523 5512 5501 5491 5479 5467 5455 5445 5434 5422 5412
5638 5638 5630 5628 5626 5628 5642 5649 5668 5684 5685 5680 5674 5668 5667 5666 5666 5665 5664 5661 5658 5654 5649 5642 5635 5628 5620 5612 5603 5595 5587 5578 5569 5561 5555 5547 5539 5527 5517 5507 5496 5485 5474 5462 5450 5439 5427 5415 5405
5628 5625 5626 5628 5624 5622 5626 5647 5674 5673 5671 5663 5659 5658 5656 5654 5653 5652 5651 5648 5645 5642 5637 5632 5625 5618 5611 5603 5596 5588 5580 5571 5562 5555 5548 5539 5530 5520 5510 5500 5490 5480 5469 5456 5444 5434 5422 5409 5398
5630 5631 5626 5621 5626 5617 5619 5642 5677 5668 5657 5647 5646 5645 5644 5640 5637 5637 5636 5635 5634 5630 5625 5619 5613 5607 5600 5593 5586 5579 5572 5563 5556 5549 5541 5532 5523 5513 5503 5492 5482 5472 5462 5450 5438 5427 5415 5404 5392